#timestamp,LO_Frequency,Hit,StdDev 
1561330815.3,286047002.6,N
1561330835.1,286047004.0,N
1561330866.0,286047003.8,E
1561330875.0,286047004.4,N
1561330876.0,286047004.4,P
1561330895.8,286047001.1,P
1561330915.6,286047000.5,N
1561330935.5,286047000.7,N
1561330955.3,286047001.1,N
1561330975.1,286046998.8,N
1561330995.9,286046997.9,N
1561331015.7,286046996.1,N
1561331035.6,286046996.9,N
1561331055.4,286047000.6,N
1561331075.2,286047002.0,N
1561331095.1,286047004.7,N
1561331096.0,286047004.7,N
1561331115.8,286047011.0,Y
1561331135.7,286047018.4,P
1561331155.5,286047023.9,N
1561331175.3,286047027.0,N
1561331195.2,286047028.3,N
1561331215.9,286047027.3,N
1561331235.7,286047029.8,Y
1561331255.6,286047007.3,P
1561331275.4,286047004.7,N
1561331295.3,286047010.2,N
1561331315.1,286047013.4,N
1561331316.0,286047013.4,N
1561331335.8,286047013.6,N
1561331355.7,286047009.6,N
1561331375.5,286047007.3,N
1561331395.3,286047009.9,N
1561331415.2,286047012.1,N
1561331435.0,286047010.4,N
1561331435.9,286047010.4,N
1561331455.8,286047010.8,N
1561331475.6,286047010.1,N
1561331495.4,286047008.7,N
1561331515.3,286047007.2,N
1561331535.1,286047007.1,N
1561331555.9,286047007.0,N
1561331575.7,286047007.0,N
1561331595.5,286047008.9,N
1561331615.4,286047012.1,Y
1561331635.2,286047005.7,P
1561331655.0,286047005.2,N
1561331655.9,286047005.2,N
1561331675.8,286047003.7,N
1561331695.6,286047000.9,N
1561331715.5,286046999.1,N
1561331735.3,286047000.4,N
1561331755.1,286046999.6,N
1561331775.9,286046996.8,N
1561331795.7,286046998.4,N
1561331815.6,286046999.2,N
1561331835.4,286046999.3,N
1561331855.2,286046999.8,N
1561331875.1,286046999.8,N
1561331876.0,286046999.8,N
1561331895.8,286047002.5,N
1561331915.6,286046998.7,N
1561331935.5,286046996.6,N
1561331955.3,286047003.8,N
1561331975.2,286047005.5,N
1561331995.9,286047003.0,N
1561332015.7,286047004.5,N
1561332035.6,286047007.4,N
1561332055.4,286047006.3,N
1561332075.3,286047007.8,N
1561332095.1,286047009.6,N
1561332096.0,286047009.6,N
1561332115.8,286047007.3,N
1561332135.7,286047006.9,N
1561332155.5,286047008.3,N
1561332175.3,286047009.3,N
1561332195.2,286047013.2,Y
1561332215.0,286047012.0,P
1561332215.9,286047012.0,N
1561332235.8,286047012.2,N
1561332255.6,286047012.4,Y
1561332275.4,286047002.1,P
1561332295.3,286047003.4,N
1561332315.1,286047000.2,N
1561332335.9,286046998.2,N
1561332355.7,286047001.0,N
1561332375.5,286047005.9,N
1561332395.4,286047005.0,N
1561332415.2,286047004.3,N
1561332435.0,286047000.3,N
1561332435.9,286047000.3,N
1561332455.8,286046999.8,N
1561332475.6,286047003.9,N
1561332495.5,286047000.0,N
1561332515.3,286047000.7,N
1561332535.1,286046998.5,N
1561332555.9,286047002.1,N
1561332575.7,286047006.3,N
1561332595.5,286047007.4,N
1561332615.4,286047008.8,N
1561332635.2,286047006.2,N
1561332655.1,286047004.7,N
1561332656.0,286047004.7,N
1561332675.8,286047002.9,N
1561332695.6,286047000.7,N
1561332715.5,286046999.5,N
1561332735.3,286046997.0,N
1561332755.1,286046993.7,N
1561332775.9,286046994.5,N
1561332795.7,286046996.3,N
1561332815.6,286046997.0,N
1561332835.4,286046993.9,N
1561332855.2,286046993.2,N
1561332875.1,286046991.0,N
1561332876.0,286046991.0,N
1561332895.8,286046987.1,N
1561332915.7,286046991.6,N
1561332935.5,286046989.3,N
1561332955.3,286046983.8,N
1561332975.2,286046987.3,N
1561332995.0,286046988.8,N
1561332995.9,286046988.8,N
1561333015.7,286046992.4,N
1561333035.6,286046992.5,N
1561333055.4,286046987.0,N
1561333075.3,286046992.1,N
1561333095.1,286046999.1,N
1561333096.0,286046999.1,N
1561333115.8,286046997.1,N
1561333135.7,286046997.8,N
1561333155.5,286046997.1,N
1561333175.4,286046998.7,N
1561333195.2,286047002.4,N
1561333215.0,286047001.8,N
1561333215.9,286047001.8,N
1561333235.8,286047006.7,N
1561333255.6,286047008.7,N
1561333275.5,286047005.1,N
1561333295.3,286047002.9,N
1561333315.1,286047009.9,N
1561333335.9,286047007.9,N
1561333355.7,286047011.9,N
1561333375.6,286047015.8,N
1561333395.4,286047015.1,N
1561333415.2,286047018.7,N
1561333435.1,286047021.3,N
1561333436.0,286047021.3,N
1561333455.8,286047019.3,N
1561333475.7,286047022.9,N
1561333495.5,286047025.0,N
1561333515.3,286047026.2,N
1561333535.2,286047026.7,N
1561333555.9,286047026.6,N
1561333575.7,286047025.8,N
1561333595.6,286047022.6,N
1561333615.4,286047026.0,N
1561333635.3,286047027.1,N
1561333655.1,286047026.9,N
1561333656.0,286047026.9,N
1561333675.8,286047031.4,Y
1561333695.7,286047014.6,P
1561333715.5,286047016.0,P
1561333735.4,286047018.2,P
1561333755.2,286047017.6,Y
1561333775.0,286047001.7,P
1561333775.9,286047001.7,N
1561333795.8,286047006.7,N
1561333815.6,286047008.0,N
1561333835.4,286047010.9,N
1561333855.3,286047012.7,N
1561333875.1,286047016.6,Y
1561333895.9,286047008.5,P
1561333915.7,286047008.9,P
1561333935.6,286047010.8,P
1561333955.4,286047010.6,Y
1561333975.2,286047000.0,P
1561333995.1,286046998.9,N
1561333996.0,286046998.9,N
1561334015.8,286046997.6,N
1561334035.7,286046994.9,N
1561334055.5,286047000.1,N
1561334075.3,286047002.6,N
1561334095.2,286047000.6,N
1561334115.0,286046999.5,N
1561334115.9,286046999.5,N
1561334135.7,286047001.2,N
1561334155.6,286047000.9,N
1561334175.4,286046995.8,N
1561334195.3,286046995.6,N
1561334215.1,286046996.2,N
1561334235.8,286046997.2,N
1561334255.7,286046997.0,N
1561334275.5,286046994.9,N
1561334295.4,286046995.1,N
1561334315.2,286046997.4,N
1561334335.0,286046997.5,N
1561334335.9,286046997.5,N
1561334355.8,286046990.5,Y
1561334375.6,286046996.1,P
1561334395.5,286046993.4,P
